Location: American Canyon
(38.1966°N, 122.1514°W)
Time: 17:18:51
(UTC+00:00)

ERS-2 - Pass Details

Date: 29 October 2020
Orbit: 493 x 498 km, 98.6° (Epoch: 23 November)

Event Time Altitude Azimuth Distance (km) Brightness Sun altitude
Rises 12:04:15 0° 139° (SE) 2,566 6.2 -29.6°
Reaches altitude 10° 12:06:33 10° 126° (SE) 1,687 5.4 -29.1°
Maximum altitude 12:09:33 25° 70° (ENE) 1,030 4.3 -28.5°
Enters shadow 12:10:39 22° 41° (NE) 1,141 4.3 -28.3°
